Location: Huntsville
(41.2590°N, 111.7678°W)
Time: 22:54:39
(UTC+00:00)

SR - Pass Details

Date: 14 June 2021
Orbit: 577 x 878 km, 66.7° (Epoch: 29 July)

Event Time Altitude Azimuth Distance (km) Brightness Sun altitude
Rises 08:28:04 0° 340° (NNW) 3,348 ? -23.9°
Reaches altitude 10° 08:31:37 10° 2° (N) 2,353 ? -23.8°
Maximum altitude 08:34:49 16° 39° (NE) 1,924 ? -23.6°
Drops below altitude 10° 08:37:51 10° 76° (ENE) 2,226 ? -23.4°
Sets 08:41:04 0° 98° (E) 3,075 ? -23.2°
